Weather History for Holland, MI

Change the Weather History Date:

Tuesday, January 1, 2013

  Actual Average Record
Temperature  
Mean Temperature 26 °F 28 °F  
Max Temperature 28 °F 33 °F 57 °F (2011)
Min Temperature 23 °F 22 °F -21 °F (1964)
Degree Days  
Heating Degree Days 39 37  
Month to date heating degree days 39 37  
Since 1 July heating degree days 2143 2305  
Cooling Degree Days 0 0  
Month to date cooling degree days 0 0  
Year to date cooling degree days 0 0  
Moisture  
Dew Point 14 °F    
Average Humidity 62    
Maximum Humidity 68    
Minimum Humidity 55    
Precipitation  
Precipitation T in 0.08 in 1.67 in (1985)
Month to date precipitation T 0.08  
Year to date precipitation T 0.08  
Sea Level Pressure  
Sea Level Pressure 30.14 in    
Wind  
Wind Speed 5 mph (NNW)    
Max Wind Speed 14 mph    
Max Gust Speed 17 mph    
Visibility 10 miles    
Events Snow    
T = Trace of Precipitation, MM = Missing Value Source: NWS Daily Summary

Daily Weather History Graph

Daily Weather History Graph

Search for Another Location

Airport:

Trip Planner

Search our weather history database for the weather conditions in past years. The results will help you decide how hot, cold, wet, or windy it might be!

Date:

Astronomy

Jan. 01, 2013 Rise Set
Actual Time 8:14 AM EST 5:21 PM EST
Civil Twilight 7:42 AM EST 5:53 PM EST
Nautical Twilight 7:07 AM EST 6:29 PM EST
Astronomical Twilight 6:33 AM EST 7:03 PM EST
Moon 9:58 PM EST (1/1) 10:20 AM EST (1/1)
Length of Visible Light 10h 10m
Length of Day
9h 06m
Waning Gibbous, 83% of the Moon is Illuminated
Jan 1
Waning Gibbous
Jan 4
Last Quarter
Jan 11
New
Jan 18
First Quarter
Jan 26
Full

Hourly Weather History & Observations

Time (EST) Temp. Windchill Dew Point Humidity Pressure Visibility Wind Dir Wind Speed Gust Speed Precip Events Conditions
12:05 AM 28.4 °F 24.6 °F 15.8 °F 59% 30.06 in 10.0 mi NNE 3.5 mph - N/A   Overcast
12:53 AM 28.0 °F 24.2 °F 15.1 °F 58% 30.09 in 10.0 mi NNE 3.5 mph - N/A   Overcast
2:53 AM 27.0 °F 23.0 °F 15.1 °F 61% 30.10 in 10.0 mi North 3.5 mph - N/A   Overcast
3:53 AM 27.0 °F 20.5 °F 14.0 °F 58% 30.11 in 10.0 mi North 5.8 mph - N/A   Overcast
4:53 AM 26.1 °F 18.4 °F 15.1 °F 63% 30.12 in 10.0 mi NNE 6.9 mph - N/A   Overcast
5:53 AM 25.0 °F 17.1 °F 12.9 °F 60% 30.12 in 10.0 mi North 6.9 mph - N/A   Overcast
6:53 AM 24.1 °F 16.0 °F 12.0 °F 60% 30.14 in 10.0 mi NNE 6.9 mph - N/A   Overcast
7:53 AM 24.1 °F 18.2 °F 10.9 °F 57% 30.17 in 10.0 mi NE 4.6 mph - N/A   Overcast
8:53 AM 24.1 °F 18.2 °F 10.9 °F 57% 30.19 in 10.0 mi NNE 4.6 mph - N/A   Overcast
9:53 AM 24.1 °F 19.7 °F 10.9 °F 57% 30.19 in 10.0 mi NNE 3.5 mph - N/A   Overcast
10:53 AM 25.0 °F 19.3 °F 12.9 °F 60% 30.18 in 8.0 mi NNE 4.6 mph - 0.00 in Snow Light Snow
11:53 AM 24.1 °F 19.7 °F 12.9 °F 62% 30.16 in 9.0 mi NE 3.5 mph - 0.00 in Snow Light Snow
12:53 PM 25.0 °F - 15.1 °F 66% 30.15 in 10.0 mi Calm Calm - 0.00 in   Overcast
1:33 PM 24.8 °F 19.1 °F 15.8 °F 69% 30.11 in 10.0 mi South 4.6 mph - N/A   Overcast
1:53 PM 24.1 °F 18.2 °F 16.0 °F 71% 30.14 in 10.0 mi South 4.6 mph - N/A   Overcast
2:53 PM 25.0 °F 19.3 °F 16.0 °F 69% 30.14 in 9.0 mi SSW 4.6 mph - 0.00 in   Overcast
3:02 PM 24.8 °F 20.5 °F 17.6 °F 74% 30.11 in 6.0 mi South 3.5 mph - 0.00 in Snow Light Snow
3:53 PM 26.1 °F 18.4 °F 15.1 °F 63% 30.14 in 10.0 mi West 6.9 mph - 0.00 in   Overcast
4:53 PM 25.0 °F 14.2 °F 14.0 °F 63% 30.15 in 10.0 mi West 11.5 mph - N/A   Overcast
5:53 PM 24.1 °F 16.0 °F 12.9 °F 62% 30.15 in 10.0 mi West 6.9 mph - N/A   Overcast
6:53 PM 24.1 °F 15.2 °F 12.9 °F 62% 30.14 in 10.0 mi WNW 8.1 mph 17.3 mph N/A   Overcast
7:53 PM 23.0 °F 14.7 °F 12.9 °F 65% 30.15 in 10.0 mi WNW 6.9 mph - N/A   Mostly Cloudy
8:53 PM 24.1 °F 16.0 °F 12.9 °F 62% 30.16 in 10.0 mi West 6.9 mph - N/A   Overcast
9:53 PM 24.1 °F 15.2 °F 12.9 °F 62% 30.15 in 10.0 mi West 8.1 mph - N/A   Overcast
10:53 PM 24.1 °F 13.7 °F 12.9 °F 62% 30.14 in 10.0 mi West 10.4 mph - N/A   Overcast
11:53 PM 24.1 °F 14.4 °F 12.9 °F 62% 30.14 in 10.0 mi West 9.2 mph - N/A   Overcast